Date String (YYYY-MM-DD hh:mm:ss) UTC,Instrument flags,absolute air pressure of the measurement (hPa),sample flow rate (lpm),inlet stack bypass flow (lpm),air temperature of the measurement (°C),ambient temperature measured by the external sensor (°C),aerosol sample conditioner tube jacket temperature (°C),OPC LED temperature (°C),internal box temperature (°C),relative humidity of the measurement (%),span deviation,mass concentration of particles derived from Lorenz-Mie calculation of OPC scattering (μg/m³),mass concentration of particles derived from Lorenz-Mie calculation of OPC scattering (μg/m³),mass concentration of particles derived from Lorenz-Mie calculation of OPC scattering (μg/m³)
DateTimeUTC,F1_M11,P_M11,Q1_M11,Q2_M11,T1_M11,T2_M11,T3_M11,T4_M11,T5_M11,U1_M11,ZSPAN_M11,X0_M11,X2_M11,X1_M11
2023-10-10 12:00:00,SystemResetWarning,0824.0,5.00,000.00,028.9,027.3,000.0,037.4,030.5,7.5,0000.0,0008.08,0004.95,0004.64
2023-10-10 12:01:00,SystemResetWarning,0824.0,5.00,000.00,028.9,027.3,000.0,037.4,030.5,7.5,0000.0,0008.09,0004.95,0004.67
2023-10-10 12:02:00,SystemResetWarning,0824.0,5.00,000.00,028.9,027.3,000.0,037.4,030.5,7.5,0000.0,0008.54,0004.97,0004.68
2023-10-10 12:03:00,SystemResetWarning,0824.0,5.00,000.00,028.9,027.3,000.0,037.4,030.5,7.5,0000.0,0008.80,0005.00,0004.69
2023-10-10 12:04:00,SystemResetWarning,0824.0,5.00,000.00,028.9,027.3,000.0,037.4,030.5,7.5,0000.0,0008.58,0004.97,0004.68
2023-10-10 12:05:00,SystemResetWarning,0824.0,5.01,000.00,028.9,027.3,000.0,037.4,030.4,7.5,0000.0,0008.59,0004.97,0004.67
2023-10-10 12:06:00,SystemResetWarning,0824.0,5.01,000.00,028.9,027.3,000.0,037.4,030.4,7.5,0000.0,0008.55,0004.95,0004.67
2023-10-10 12:07:00,SystemResetWarning,0824.0,5.00,000.00,028.9,027.3,000.0,037.4,030.4,7.5,0000.0,0008.65,0004.98,0004.69
2023-10-10 12:08:00,SystemResetWarning,0824.0,4.99,000.00,028.9,027.3,000.0,037.4,030.4,7.6,0000.0,0008.67,0004.99,0004.71
2023-10-10 12:09:00,SystemResetWarning,0824.0,5.00,000.00,028.9,027.3,000.0,037.4,030.4,7.5,0000.0,0008.67,0004.99,0004.73
2023-10-10 12:10:00,SystemResetWarning,0824.0,4.99,000.00,028.9,027.3,000.0,037.4,030.4,7.5,0000.0,0008.71,0004.95,0004.69
2023-10-10 12:11:00,SystemResetWarning,0824.0,5.00,000.00,028.9,027.3,000.0,037.4,030.4,7.5,0000.0,0008.67,0004.92,0004.65
2023-10-10 12:12:00,SystemResetWarning,0824.0,5.00,000.00,028.9,027.3,000.0,037.3,030.4,7.4,0000.0,0008.38,0004.89,0004.61
2023-10-10 12:13:00,SystemResetWarning,0824.0,5.00,000.00,028.9,027.3,000.0,037.4,030.4,7.4,0000.0,0008.29,0004.84,0004.57
2023-10-10 12:14:00,SystemResetWarning,0824.0,5.00,000.00,028.9,027.3,000.0,037.4,030.4,7.4,0000.0,0008.04,0004.81,0004.56
2023-10-10 12:15:00,SystemResetWarning,0824.0,5.01,000.00,028.8,027.3,000.0,037.3,030.4,7.4,0000.0,0007.97,0004.80,0004.54
2023-10-10 12:16:00,SystemResetWarning,0824.0,5.01,000.00,028.8,027.2,000.0,037.3,030.4,7.4,0000.0,0007.93,0004.78,0004.53
2023-10-10 12:17:00,SystemResetWarning,0824.0,5.00,000.00,028.8,027.2,000.0,037.3,030.4,7.4,0000.0,0007.92,0004.78,0004.54
2023-10-10 12:18:00,SystemResetWarning,0824.0,5.00,000.00,028.8,027.2,000.0,037.3,030.4,7.4,0000.0,0007.84,0004.76,0004.54
2023-10-10 12:19:00,SystemResetWarning,0824.0,5.00,000.00,028.8,027.2,000.0,037.4,030.4,7.5,0000.0,0007.93,0004.78,0004.55
2023-10-10 12:20:00,SystemResetWarning,0824.0,4.99,000.00,028.8,027.2,000.0,037.4,030.4,7.4,0000.0,0008.11,0004.81,0004.56
2023-10-10 12:21:00,SystemResetWarning,0824.1,4.99,000.00,028.8,027.2,000.0,037.3,030.4,7.5,0000.0,0008.23,0004.87,0004.59
2023-10-10 12:22:00,SystemResetWarning,0824.1,5.00,000.00,028.8,027.2,000.0,037.3,030.4,7.5,0000.0,0008.27,0004.89,0004.61
2023-10-10 12:23:00,SystemResetWarning,0824.1,5.00,000.00,028.8,027.2,000.0,037.3,030.4,7.5,0000.0,0008.37,0004.90,0004.61
2023-10-10 12:24:00,SystemResetWarning,0824.1,5.01,000.00,028.8,027.2,000.0,037.3,030.4,7.4,0000.0,0008.52,0004.94,0004.62
2023-10-10 12:25:00,SystemResetWarning,0824.1,5.00,000.00,028.8,027.2,000.0,037.3,030.4,7.4,0000.0,0008.38,0004.96,0004.62
2023-10-10 12:26:00,SystemResetWarning,0824.2,5.00,000.00,028.8,027.2,000.0,037.3,030.4,7.3,0000.0,0008.41,0004.97,0004.63
2023-10-10 12:27:00,SystemResetWarning,0824.1,4.99,000.00,028.8,027.2,000.0,037.3,030.4,7.4,0001.5,0008.48,0004.99,0004.63
2023-10-10 12:28:00,SystemResetWarning,0824.1,4.99,000.00,028.8,027.2,000.0,037.3,030.4,7.5,0002.3,0008.51,0004.99,0004.62
2023-10-10 12:29:00,SystemResetWarning,0824.1,5.00,000.00,028.8,027.2,000.0,037.3,030.4,7.5,0001.2,0008.52,0004.98,0004.61
2023-10-10 12:30:00,SystemResetWarning,0824.1,5.00,000.00,028.8,027.2,000.0,037.3,030.4,7.4,0000.0,0008.61,0004.98,0004.62
2023-10-10 12:31:00,SystemResetWarning,0824.2,5.00,000.00,028.8,027.2,000.0,037.3,030.4,7.5,0000.0,0008.40,0004.94,0004.59
2023-10-10 12:32:00,SystemResetWarning,0824.2,5.00,000.00,028.8,027.2,000.0,037.3,030.4,7.5,0000.0,0008.25,0004.86,0004.53
2023-10-10 12:33:00,SystemResetWarning,0824.1,5.00,000.00,028.8,027.2,000.0,037.3,030.4,7.6,0000.0,0008.16,0004.80,0004.48
2023-10-10 12:34:00,SystemResetWarning,0824.1,5.00,000.00,028.8,027.2,000.0,037.3,030.4,7.7,0000.0,0008.00,0004.74,0004.45
2023-10-10 12:35:00,SystemResetWarning,0824.1,5.00,000.00,028.8,027.2,000.0,037.3,030.4,7.7,0000.0,0007.62,0004.68,0004.42
2023-10-10 12:36:00,SystemResetWarning,0824.1,5.00,000.00,028.8,027.2,000.0,037.3,030.4,7.6,0000.0,0007.58,0004.64,0004.40
2023-10-10 12:37:00,SystemResetWarning,0824.2,5.00,000.00,028.8,027.2,000.0,037.3,030.3,7.5,0000.0,0007.78,0004.63,0004.38
2023-10-10 12:38:00,SystemResetWarning,0824.1,4.99,000.00,028.8,027.2,000.0,037.3,030.3,7.4,0000.0,0007.75,0004.62,0004.37
2023-10-10 12:39:00,SystemResetWarning,0824.2,5.00,000.00,028.8,027.2,000.0,037.3,030.3,7.4,0000.0,0007.77,0004.64,0004.37
2023-10-10 12:40:00,SystemResetWarning,0824.2,4.99,000.00,028.8,027.2,000.0,037.3,030.3,7.4,0000.0,0007.72,0004.63,0004.36
2023-10-10 12:41:00,SystemResetWarning,0824.2,4.99,000.00,028.8,027.2,000.0,037.3,030.3,7.3,0000.0,0007.57,0004.62,0004.35
2023-10-10 12:42:00,SystemResetWarning,0824.1,5.01,000.00,028.8,027.2,000.0,037.3,030.3,7.4,0000.0,0007.55,0004.62,0004.35
2023-10-10 12:43:00,SystemResetWarning,0824.2,5.00,000.00,028.7,027.1,000.0,037.2,030.3,7.5,0000.0,0007.48,0004.61,0004.33
2023-10-10 12:44:00,SystemResetWarning,0824.2,5.00,000.00,028.7,027.1,000.0,037.3,030.3,7.5,0000.0,0007.43,0004.62,0004.34
2023-10-10 12:45:00,SystemResetWarning,0824.1,5.00,000.00,028.7,027.1,000.0,037.2,030.3,7.4,0000.0,0007.44,0004.62,0004.34
2023-10-10 12:46:00,SystemResetWarning,0824.1,5.00,000.00,028.7,027.1,000.0,037.2,030.3,7.4,0000.0,0007.48,0004.62,0004.34
2023-10-10 12:47:00,SystemResetWarning,0824.1,5.00,000.00,028.7,027.1,000.0,037.2,030.3,7.4,0000.0,0007.50,0004.62,0004.34
2023-10-10 12:48:00,SystemResetWarning,0824.0,5.00,000.00,028.7,027.1,000.0,037.2,030.3,7.4,0000.0,0007.35,0004.61,0004.33
2023-10-10 12:49:00,SystemResetWarning,0824.0,5.00,000.00,028.7,027.1,000.0,037.2,030.3,7.5,0000.0,0007.58,0004.60,0004.32
2023-10-10 12:50:00,SystemResetWarning,0824.1,5.00,000.00,028.7,027.1,000.0,037.2,030.3,7.4,0000.0,0008.51,0004.55,0004.30
2023-10-10 12:51:00,SystemResetWarning,0824.1,5.00,000.00,028.7,027.1,000.0,037.2,030.3,7.5,0000.0,0008.52,0004.54,0004.29
2023-10-10 12:52:00,SystemResetWarning,0824.1,5.00,000.00,028.7,027.1,000.0,037.2,030.3,7.5,0000.0,0008.53,0004.54,0004.29
2023-10-10 12:53:00,SystemResetWarning,0824.1,4.99,000.00,028.7,027.1,000.0,037.2,030.3,7.6,0000.0,0008.49,0004.51,0004.27
2023-10-10 12:54:00,SystemResetWarning,0824.0,4.99,000.00,028.7,027.1,000.0,037.2,030.3,7.6,0000.0,0008.52,0004.49,0004.26
2023-10-10 12:55:00,SystemResetWarning,0824.0,5.00,000.00,028.7,027.1,000.0,037.2,030.2,7.6,0000.0,0008.50,0004.46,0004.23
2023-10-10 12:56:00,SystemResetWarning,0824.0,5.00,000.00,028.7,027.1,000.0,037.2,030.3,7.6,0000.0,0008.54,0004.46,0004.22
2023-10-10 12:57:00,SystemResetWarning,0824.0,5.00,000.00,028.7,027.0,000.0,037.2,030.3,7.6,0000.0,0008.49,0004.45,0004.20
2023-10-10 12:58:00,SystemResetWarning,0824.0,5.00,000.00,028.7,027.0,000.0,037.2,030.3,7.7,0000.0,0008.42,0004.42,0004.18
2023-10-10 12:59:00,SystemResetWarning,0824.0,5.00,000.00,028.7,027.0,000.0,037.2,030.2,7.7,0000.0,0008.51,0004.41,0004.16
